Weather History for Tallahassee, FL

Change the Weather History Date:

Thursday, July 11, 2013

  Actual Average Record
Temperature  
Mean Temperature 82 °F 82 °F  
Max Temperature 91 °F 92 °F 103 °F (1930)
Min Temperature 72 °F 72 °F 63 °F (1963)
Degree Days  
Heating Degree Days 0    
Month to date heating degree days 0  
Since 1 June heating degree days 0  
Since 1 July heating degree days 0  
Cooling Degree Days 17    
Month to date cooling degree days 167  
Year to date cooling degree days 1149  
Since 1 June cooling degree days 687  
Growing Degree Days 32 (Base 50)    
Moisture  
Dew Point 71 °F    
Average Humidity 74    
Maximum Humidity 93    
Minimum Humidity 55    
Precipitation  
Precipitation 0.45 in 0.23 in 3.09 in (1979)
Month to date precipitation 6.38 2.56  
Year to date precipitation 36.09 31.95  
Sea Level Pressure  
Sea Level Pressure 29.97 in    
Wind  
Wind Speed 4 mph (SW)    
Max Wind Speed 26 mph    
Max Gust Speed 43 mph    
Visibility 8 miles    
Events Fog , Rain , Thunderstorm    
T = Trace of Precipitation, MM = Missing Value Source: NWS Daily Summary

Daily Weather History Graph

Daily Weather History Graph

Search for Another Location

Airport:

Trip Planner

Search our weather history database for the weather conditions in past years. The results will help you decide how hot, cold, wet, or windy it might be!

Date:

Astronomy

Jul. 11, 2013 Rise Set
Actual Time 6:43 AM EDT 8:42 PM EDT
Civil Twilight 6:16 AM EDT 9:09 PM EDT
Nautical Twilight 5:43 AM EDT 9:42 PM EDT
Astronomical Twilight 5:08 AM EDT 10:17 PM EDT
Moon 9:44 AM EDT (7/11) 10:41 PM EDT (7/11)
Length of Visible Light 14h 52m
Length of Day
13h 58m
Waxing Crescent, 10% of the Moon is Illuminated
Jul 11
Waxing Crescent
Jul 15
First Quarter
Jul 22
Full
Jul 29
Last Quarter
Aug 6
New

Hourly Weather History & Observations

Time (EDT) Temp. Heat Index Dew Point Humidity Pressure Visibility Wind Dir Wind Speed Gust Speed Precip Events Conditions
12:53 AM 73.9 °F - 71.1 °F 91% 29.99 in 10.0 mi SSE 5.8 mph - N/A   Clear
1:53 AM 73.0 °F - 70.0 °F 90% 29.99 in 10.0 mi SSE 4.6 mph - N/A   Clear
2:53 AM 73.0 °F - 70.0 °F 90% 30.01 in 10.0 mi NW 10.4 mph - N/A   Scattered Clouds
3:53 AM 73.0 °F - 70.0 °F 90% 30.01 in 10.0 mi Calm Calm - N/A   Clear
4:53 AM 73.0 °F - 70.0 °F 90% 30.01 in 10.0 mi Calm Calm - N/A   Clear
5:53 AM 72.0 °F - 69.1 °F 91% 29.99 in 9.0 mi Calm Calm - N/A Fog Patches of Fog
6:53 AM 73.0 °F - 70.0 °F 90% 29.99 in 8.0 mi Calm Calm - N/A Fog Patches of Fog
6:57 AM 73.4 °F - 69.8 °F 88% 30.00 in 0.5 mi Calm Calm - N/A Fog Patches of Fog
7:12 AM 71.6 °F - 69.8 °F 94% 30.00 in 2.0 mi Calm Calm - N/A Fog Patches of Fog
7:19 AM 71.6 °F - 69.8 °F 94% 30.00 in 5.0 mi Calm Calm - N/A Fog Patches of Fog
7:42 AM 71.6 °F - 69.8 °F 94% 30.01 in 1.5 mi Calm Calm - N/A Fog Patches of Fog
7:53 AM 72.0 °F - 70.0 °F 93% 30.00 in 6.0 mi SE 3.5 mph - N/A Fog Patches of Fog
8:53 AM 75.0 °F - 71.1 °F 87% 30.00 in 10.0 mi Variable 4.6 mph - N/A   Clear
9:53 AM 80.1 °F 83.2 °F 70.0 °F 71% 30.00 in 10.0 mi Variable 4.6 mph - N/A   Clear
10:53 AM 84.0 °F 89.0 °F 71.1 °F 65% 30.00 in 10.0 mi Variable 5.8 mph - N/A   Clear
11:26 AM 84.2 °F 89.6 °F 71.6 °F 66% 29.99 in 10.0 mi WSW 6.9 mph - N/A   Mostly Cloudy
11:53 AM 84.9 °F 90.1 °F 71.1 °F 63% 29.99 in 10.0 mi SW 10.4 mph 16.1 mph N/A   Mostly Cloudy
12:12 PM 86.0 °F 91.8 °F 71.6 °F 62% 29.99 in 10.0 mi WSW 8.1 mph - N/A   Scattered Clouds
12:53 PM 87.1 °F 92.0 °F 70.0 °F 57% 29.98 in 10.0 mi Variable 6.9 mph 17.3 mph N/A   Scattered Clouds
1:53 PM 88.0 °F 92.1 °F 69.1 °F 53% 29.96 in 10.0 mi WSW 9.2 mph 17.3 mph N/A   Scattered Clouds
2:53 PM 86.0 °F 91.5 °F 71.1 °F 61% 29.95 in 10.0 mi West 11.5 mph 23.0 mph N/A   Mostly Cloudy
3:06 PM 78.8 °F - 71.6 °F 78% 29.94 in 0.8 mi WNW 21.9 mph 42.6 mph 0.07 in Rain Heavy Rain
3:20 PM 78.8 °F - 73.4 °F 83% 29.96 in 0.8 mi Variable 6.9 mph - 0.22 in Rain Light Rain
3:34 PM 78.8 °F - 71.6 °F 78% 29.95 in 10.0 mi SE 10.4 mph - 0.22 in Thunderstorm Thunderstorm
3:53 PM 77.0 °F - 73.0 °F 88% 29.94 in 10.0 mi ESE 4.6 mph - 0.22 in Thunderstorm Thunderstorm
4:53 PM 78.1 °F - 73.0 °F 84% 29.96 in 10.0 mi NNW 8.1 mph - 0.00 in   Overcast
5:00 PM 77.0 °F - 71.6 °F 83% 29.95 in 4.0 mi West 10.4 mph - 0.00 in Rain , Thunderstorm Thunderstorms and Rain
5:03 PM 75.2 °F - 71.6 °F 89% 29.95 in 1.8 mi West 10.4 mph - 0.01 in Rain , Thunderstorm Heavy Thunderstorms and Rain
5:17 PM 75.2 °F - 71.6 °F 89% 29.94 in 4.0 mi SSE 3.5 mph - 0.15 in Rain , Thunderstorm Light Thunderstorms and Rain
5:53 PM 75.9 °F - 72.0 °F 87% 29.92 in 5.0 mi South 3.5 mph - 0.21 in Rain , Thunderstorm Thunderstorms and Rain
6:34 PM 75.2 °F - 71.6 °F 89% 29.91 in 10.0 mi Calm Calm - 0.02 in   Mostly Cloudy
6:53 PM 75.9 °F - 72.0 °F 87% 29.91 in 10.0 mi WNW 5.8 mph - 0.02 in   Mostly Cloudy
7:53 PM 75.9 °F - 72.0 °F 87% 29.91 in 10.0 mi Calm Calm - 0.00 in   Scattered Clouds
8:53 PM 75.0 °F - 72.0 °F 90% 29.91 in 10.0 mi Calm Calm - N/A   Partly Cloudy
9:53 PM 75.0 °F - 72.0 °F 90% 29.93 in 10.0 mi Calm Calm - N/A   Scattered Clouds
10:26 PM 73.4 °F - 71.6 °F 94% 29.93 in 9.0 mi Calm Calm - N/A   Scattered Clouds
10:53 PM 73.9 °F - 72.0 °F 93% 29.94 in 10.0 mi Calm Calm - N/A   Scattered Clouds
11:53 PM 73.9 °F - 72.0 °F 93% 29.94 in 10.0 mi Calm Calm - N/A   Clear